SCP
0 0 0 0 0 0 0 0 0 0 0 0 0 0 0 0 0 0 0 0 0 0 0 0 0 0 0 0 0 0 0 0 0 0 0 0 0 0 0 0 0 0 0
0 0 0 0 0 0 0 0 0 0 0 0 0 0 0 0 0 0 0 0 0 0 0 0 0 0 0 0 0 0 0 0 0 0 0 0 0 0 0 0 0 0 0
0 0 0 0 0 0 0 0 0 0 0 0 0 0 0 0 0 0 0 0 0 0 0 0 0 0 0 0 0 0 0 0 0 0 0 0 0 0 0 0 0 0 0
0 0 0 0 0 0 0 0 0 0 0 0 0 0 0 0 0 0 0 0 0 0 0 0 0 0 0 0 0 0 0 0 0 0 0 0 0 0 0 0 0 0 0
0 0 0 0 0 0 0 0 0 0 0 0 0 0 0 0 0 0 0 0 0 0 0 0 0 0 0 0 0 0 0 0 0 0 0 0 0 0 0 0 0 0 0
0 0 0 0 0 0 0 0 0 0 0 0 0 0 0 0 0 0 0 0 0 0 0 0 0 0 0 0 0 0 0 0 0 0 0 0 0 0 0 0 0 0 0
0 0 0 0 0 0 0 0 0 0 0 0 0 0 0 0 0 0 0 0 0 0 0 0 0 0 0 0 0 0 0 0 0 0 0 0 0 0 0 0 0 0 0
0 0 0 0 0 0 0 0 0 0 0 0 0 0 0 0 0 0 0 0 0 0 0 0 0 0 0 0 0 0 0 0 0 0 0 0 0 0 0 0 0 0 0
0 0 0 0 0 0 0 0 0 0 0 0 0 0 0 0 0 0 0 0 0 0 0 0 0 0 0 0 0 0 0 0 0 0 0 0 0 0 0 0 0 0 0
0 0 0 0 0 0 0 0 0 0 0 0 0 0 0 0 0 0 0 0 0 0 0 0 0 0 0 0 0 0 0 0 0 0 0 0 0 0 0 0 0 0 0
0 0 0 0 0 0 0 0 0 0 0 0 0 0 0 0 0 0 0 0 0 0 0 0 0 0 0 0 0 0 0 0 0 0 0 0 0 0 0 0 0 0 0
0 0 0 0 0 0 0 0 0 0 0 0 0 0 0 0 0 0 0 0 0 0 0 0 0 0 0 0 0 0 0 0 0 0 0 0 0 0 0 0 0 0 0
0 0 0 0 0 0 0 0 0 0 0 0 0 0 0 0 0 0 0 0 0 0 0 0 0 0 0 0 0 0 0 0 0 0 0 0 0 0 0 0 0 -0 -0
0 0 0 0 0 0 0 0 0 0 0 0 0 0 0 0 0 0 0 0 0 0 0 0 0 0 0 0 0 0 0 0 0 0 0 0 0 0 0 0 0 0 -0
0 0 0 0 0 0 0 0 0 0 0 0 0 0 0 0 0 0 0 0 0 0 0 0 0 0 0 0 0 0 0 0 0 0 0 0 0 0 0 0 0 0 0
0 0 0 0 0 0 0 0 0 0 0 0 0 0 0 0 0 0 0 0 0 0 0 0 0 0 0 0 0 0 0 0 0 0 0 0 0 0 0 0 0 0 0
0 0 0 0 0 0 0 0 0 0 0 0 0 0 0 0 0 0 0 0 0 0 0 0 0 0 0 0 0 0 0 0 0 0 0 0 0 0 0 0 0 0 0
0 0 0 0 0 0 0 0 0 0 0 0 0 0 0 0 0 0 0 0 0 0 0 0 0 0 0 0 0 0 0 0 0 0 0 0 0 0 0 0 0 0 0
0 0 0 0 0 0 0 0 0 0 0 0 0 0 0 0 0 0 0 0 0 0 0 0 0 0 0 0 0 0 0 0 0 0 0 0 0 0 0 0 0 0 0
0 0 0 0 0 0 0 0 0 0 0 0 0 0 0 0 0 0 0 0 0 0 0 0 0 0 0 0 0 0 0 0 0 0 0 0 0 0 0 0 0 0 0
0 0 0 0 0 0 0 0 0 0 0 0 0 0 0 0 0 0 0 0 0 0 0 0 0 0 0 0 0 0 0 0 0 0 0 0 0 0 0 0 0 0 0
0 0 0 0 0 0 0 0 0 0 0 0 0 0 0 0 0 0 0 0 0 0 0 0 0 0 0 0 0 0 0 0 0 0 0 0 0 0 0 0 0 0 0
0 0 0 0 0 0 0 0 0 0 0 0 0 0 0 0 0 0 0 0 0 0 0 0 0 0 0 0 0 0 0 0 0 0 0 0 0 0 0 0 0 0 0
0 0 0 0 0 0 0 0 0 0 0 0 0 0 0 0 0 0 0 0 0 0 0 0 0 0 0 0 0 0 0 0 0 0 0 0 0 0 0 0 0 0 0
0 0 0 0 0 0 0 0 0 0 0 0 0 0 0 0 0 0 0 0 0 0 0 0 0 0 0 0 0 0 0 0 0 0 0 0 0 0 0 0 0 0 0
0 0 0 0 0 0 0 0 0 0 0 0 0 0 0 0 0 0 0 0 0 0 0 0 0 0 0 0 0 0 0 0 0 0 0 0 0 0 0 0 0 0 0
Wind_Speed
13 11 12 12 12 12 12 11 10 8 6 3 2 2 2 2 2 2 3 3 3 3 3 3 3 3 3 4 5 4 6 5 5 6 10 9 8 8 7 7 7 10 11
11 12 13 13 15 15 14 12 11 10 8 5 4 3 3 3 3 2 2 3 3 3 3 3 3 3 3 5 5 4 4 5 5 5 9 9 10 7 9 7 9 10 8
17 15 16 17 16 16 16 14 13 11 9 7 4 2 1 1 1 2 2 3 3 3 4 4 4 4 3 4 5 5 5 6 6 3 4 7 10 13 9 8 9 8 8
16 15 17 17 18 18 14 13 13 11 10 9 6 6 5 4 4 3 3 4 4 4 4 4 4 4 4 5 6 5 5 6 8 6 4 6 9 11 12 9 6 8 9
16 16 18 19 17 15 14 12 12 11 10 9 9 7 5 5 3 3 4 4 4 4 5 5 4 5 4 5 6 6 6 5 7 7 7 8 8 8 9 14 12 9 8
14 14 13 12 12 12 12 12 13 12 11 10 9 9 8 7 5 5 4 4 3 4 5 5 5 5 5 6 6 6 7 7 7 7 7 8 8 9 9 11 13 13 11
11 11 12 14 14 15 15 14 14 13 12 11 10 10 9 8 8 7 6 5 4 4 5 5 5 5 6 6 6 6 7 7 7 7 7 7 8 8 9 10 12 14 12
9 12 14 15 16 17 17 16 16 13 12 12 11 9 9 6 6 7 6 6 5 5 6 6 6 7 7 7 6 6 7 6 7 9 9 7 8 7 8 8 10 12 12
10 11 11 13 15 17 18 18 17 14 13 12 10 9 9 8 7 7 6 5 5 5 6 6 7 7 7 7 7 6 7 7 8 8 9 8 7 7 7 7 7 8 12
9 10 11 13 14 15 14 14 15 15 12 12 11 9 9 9 8 6 7 7 7 6 6 7 7 7 7 7 7 7 8 8 8 7 8 8 7 7 7 7 7 7 9
12 12 12 12 11 10 12 14 14 12 12 12 10 9 8 8 7 7 7 7 6 7 7 7 7 7 8 8 7 8 8 9 9 9 9 10 9 8 7 7 7 7 7
10 10 10 10 11 13 13 15 14 13 13 12 10 10 8 8 7 7 7 7 7 7 7 7 7 8 8 8 8 9 10 9 10 11 10 11 10 10 8 7 8 8 7
9 8 9 11 14 15 15 15 15 14 12 11 11 10 9 8 8 8 7 7 7 7 7 7 8 9 9 9 9 9 10 10 11 11 11 12 11 11 10 10 9 7 7
9 9 11 13 14 14 15 15 15 13 12 12 11 11 11 10 9 8 7 7 7 7 7 7 8 9 9 9 10 10 11 11 11 12 12 12 12 13 12 10 9 8 7
10 12 13 13 13 13 14 14 14 13 13 13 13 13 10 9 8 7 7 7 7 8 7 7 8 8 8 8 10 10 10 10 11 11 11 11 15 18 15 11 8 7 6
12 13 13 13 14 16 16 15 15 14 13 14 14 11 9 9 9 8 7 7 7 7 7 7 8 9 8 15 20 16 8 8 9 10 10 11 13 17 21 21 18 13 8
13 13 14 15 16 17 17 18 16 14 14 14 12 11 11 10 9 8 7 7 7 7 7 7 7 9 11 18 19 20 11 7 7 9 9 9 10 15 10 14 17 15 17
13 12 12 13 14 13 14 13 12 13 14 14 13 12 11 11 9 8 8 8 6 6 7 7 7 8 11 17 18 19 9 6 7 8 8 10 10 12 13 9 8 8 8
12 11 10 11 10 12 12 12 13 13 14 15 15 14 12 11 10 9 9 7 6 7 6 6 7 7 10 16 17 18 5 6 7 8 8 9 9 17 19 8 6 6 7
10 9 7 7 9 10 12 14 15 15 18 17 15 13 12 12 11 10 9 6 6 7 6 6 6 7 8 14 16 17 5 6 7 6 7 13 15 18 17 5 4 7 7
11 9 7 8 10 10 13 15 16 19 18 13 12 12 12 12 11 9 7 6 6 6 5 6 6 7 8 11 14 16 6 6 6 6 5 7 18 18 15 11 5 9 7
11 9 8 10 8 10 14 16 19 16 11 11 12 12 12 10 9 8 7 6 6 6 6 6 6 5 6 9 11 15 14 12 6 6 6 8 16 15 14 10 11 13 10
11 8 9 10 8 11 16 19 16 12 13 14 13 12 11 10 9 9 8 6 6 5 5 5 5 5 4 6 13 14 15 15 8 5 12 14 15 13 9 12 14 10 4
10 8 8 10 11 12 16 16 11 13 14 15 14 12 11 10 9 8 7 6 6 6 5 5 5 5 4 5 5 6 7 10 8 6 8 12 13 10 9 9 7 4 5
9 7 9 12 14 12 14 13 11 15 15 14 13 12 11 10 10 9 8 8 7 7 6 6 5 4 5 7 10 7 4 4 4 4 3 3 5 5 4 4 4 4 5
9 8 10 12 12 10 13 13 13 15 16 14 13 11 10 9 8 8 7 12 11 13 13 11 8 7 9 11 12 12 12 12 11 5 3 4 4 5 5 5 5 5 5
Wind_Direction
219 200 193 185 179 178 177 176 173 172 160 155 165 186 229 249 260 248 233 237 250 265 267 283 285 287 290 293 299 303 308 305 303 308 311 300 281 275 282 283 285 290 292
217 205 194 189 187 185 184 181 180 177 174 169 168 177 194 225 233 242 245 249 257 267 279 271 273 278 284 295 299 302 296 301 317 309 316 313 309 298 304 286 284 286 286
220 209 200 197 194 193 189 187 184 179 177 170 155 158 161 271 264 249 248 255 260 264 269 271 268 271 265 278 287 288 284 300 304 272 283 302 305 310 296 291 289 283 284
222 213 205 201 201 198 190 186 181 179 177 170 169 173 190 210 223 223 235 259 260 265 266 266 265 263 262 269 279 296 281 285 300 298 257 260 282 297 305 303 287 283 288
220 216 209 206 202 193 187 184 179 181 179 177 179 181 200 212 223 233 249 257 261 261 263 262 259 259 261 265 271 282 279 273 281 292 294 293 291 282 293 302 305 302 292
220 220 210 198 193 184 183 181 181 186 183 183 183 188 200 210 222 236 245 251 252 258 261 261 253 256 260 263 267 269 273 274 275 280 283 289 295 298 297 296 301 302 301
212 210 200 194 190 186 187 186 186 189 188 187 191 195 200 204 215 225 232 240 247 251 256 259 254 256 258 262 262 267 270 272 274 276 279 280 282 285 288 292 298 300 299
213 210 205 198 193 190 189 188 190 192 190 192 197 198 199 202 214 220 221 229 235 244 250 251 253 256 260 268 266 268 268 273 272 279 280 281 281 282 282 285 295 301 301
220 215 206 198 194 192 192 191 191 193 193 195 194 198 201 205 214 221 223 231 237 247 248 249 255 259 261 262 265 265 268 271 270 274 277 278 280 280 278 278 280 287 301
231 221 210 203 198 196 193 190 192 195 193 192 195 201 203 207 212 217 227 234 241 246 254 257 258 261 263 262 262 265 266 267 271 272 274 276 278 280 278 278 277 272 279
229 222 214 205 197 189 189 192 195 194 193 194 197 200 201 205 210 218 228 234 240 243 249 254 259 262 264 263 262 264 268 267 272 275 276 277 278 279 281 279 276 275 276
232 221 209 195 193 194 194 196 196 197 198 194 194 200 201 203 212 223 231 233 240 244 247 253 260 264 268 264 263 268 273 268 271 274 274 276 278 277 278 277 276 276 275
240 221 204 202 203 201 200 199 199 200 196 191 193 199 202 206 216 224 229 233 239 247 252 254 259 265 267 267 265 264 267 266 266 268 269 272 274 275 276 274 272 272 280
239 221 216 214 210 205 202 200 201 198 193 191 195 202 206 209 214 220 226 232 238 246 253 256 260 264 267 268 269 267 266 265 265 265 266 267 268 269 273 273 268 270 275
242 228 224 220 213 208 205 203 201 196 192 193 199 207 206 205 209 217 226 232 238 248 252 260 266 268 269 267 266 262 262 261 265 268 268 269 276 281 282 282 273 268 267
250 239 231 223 216 211 207 203 202 196 190 196 203 202 198 202 210 217 223 232 241 250 255 260 265 270 275 288 294 293 271 266 271 276 276 276 283 288 294 296 296 294 286
259 247 234 225 220 212 205 203 200 189 190 198 201 197 198 205 211 216 221 231 240 247 255 260 263 267 276 292 297 299 296 276 278 279 283 287 285 296 287 285 291 294 296
261 254 240 230 222 211 203 198 186 185 192 197 200 198 198 206 207 211 224 232 234 241 250 257 262 268 279 296 302 304 304 284 279 276 276 278 281 284 286 272 269 267 276
257 253 241 229 216 205 194 183 186 189 194 200 201 200 198 202 204 214 223 226 230 242 246 253 261 268 281 298 303 308 290 283 284 278 278 284 278 289 299 295 281 281 278
260 258 249 223 213 204 181 184 192 194 203 204 201 196 195 199 206 213 218 219 225 240 248 256 258 263 271 291 304 310 289 287 287 281 281 296 300 304 313 298 275 282 280
270 262 241 226 219 192 179 193 197 206 206 196 190 191 195 200 204 208 210 215 227 239 248 259 263 262 269 290 304 309 303 290 293 294 290 290 307 315 321 324 296 297 313
272 256 240 239 219 185 186 200 210 208 186 180 187 192 194 197 201 202 209 211 219 236 249 258 270 260 267 285 297 307 312 313 300 296 291 293 312 324 327 325 318 325 334
271 254 238 243 223 197 196 209 212 185 175 181 190 192 192 196 196 197 204 209 213 226 244 248 263 271 264 276 298 307 312 315 313 295 309 319 327 332 329 322 328 337 326
271 259 241 239 234 212 210 216 196 174 179 187 190 188 190 195 198 200 202 207 212 219 233 243 253 264 269 270 277 279 290 301 306 305 313 324 329 328 323 325 326 318 304
274 254 238 241 240 220 215 210 185 175 183 189 190 189 192 193 197 202 205 207 211 209 217 226 231 244 261 272 292 303 289 291 295 314 311 313 318 320 316 314 309 304 308
280 268 252 247 246 225 216 204 188 183 183 188 190 190 190 191 193 198 210 225 224 235 241 242 240 245 263 288 303 313 320 326 330 340 320 315 316 317 317 315 313 309 310